Flight Track Log - Related Links

Times and Time Zones

All times are in EDT time to prevent confusion due to time zone crossing. See the ASQ5740 flight status page for this flight to view local times or setup timezone preferences in your user account.

Time Position Orientation Groundspeed Altitude Reporting Facility
EDT Latitude Longitude Course Direction KTS MPH feet Rate Location/Type
Fri 03:52:00 PM 35.2041 -81.8810 North  Level Estimated
Fri 03:53:00 PM 35.2811 -81.7961 80° East  Level Estimated
Fri 03:53:19 PM 35.1511 -82.0397 30° Northeast 294 338 10,400  Level Atlanta Center
Fri 03:54:00 PM 35.3580 -81.7111 71° East  Level Estimated
Fri 03:54:19 PM 35.2233 -81.9869 31° Northeast 289 333 12,400  Level Atlanta Center
Fri 03:55:00 PM 35.4549 -81.6662 21° North  Level FlightAware Approximate
Fri 03:55:19 PM 35.2847 -81.9142 44° Northeast 297 342 14,700  Level Atlanta Center
Fri 03:56:00 PM 35.5312 -81.5801 73° East  Level Estimated
Fri 03:56:19 PM 35.3206 -81.8217 65° Northeast 292 336 16,500  Level Atlanta Center
Fri 03:57:19 PM 35.3586 -81.7342 62° Northeast 302 348 17,700 750 Climbing Atlanta Center
Fri 03:58:19 PM 35.4133 -81.6458 53° Northeast 321 369 18,000 1,050 Climbing Atlanta Center
Fri 03:59:19 PM 35.4550 -81.5375 65° Northeast 339 390 19,800 1,700 Climbing Atlanta Center
Fri 04:00:19 PM 35.4967 -81.4317 64° Northeast 339 390 21,400 1,233 Climbing Atlanta Center
Fri 04:02:19 PM 35.5772 -81.2069 66° East 352 405 23,500 1,067 Climbing Atlanta Center
Fri 04:03:19 PM 35.6283 -81.0828 63° Northeast 368 423 24,600 1,050 Climbing Atlanta Center
Fri 04:04:19 PM 35.6736 -80.9661 64° Northeast 368 423 25,600 950 Climbing Atlanta Center
Fri 04:05:19 PM 35.7106 -80.8647 66° East 368 423 26,500 950 Climbing Atlanta Center
Fri 04:06:19 PM 35.7536 -80.7556 64° Northeast 363 418 27,500 950 Climbing Atlanta Center
Fri 04:07:19 PM 35.7964 -80.6414 65° Northeast 363 418 28,400 750 Climbing Atlanta Center
Fri 04:08:19 PM 35.8411 -80.5242 65° Northeast 363 418 29,000 300 Climbing Atlanta Center
Fri 04:09:19 PM 35.8817 -80.4097 66° East 363 418 29,000  Level Atlanta Center
Fri 04:11:41 PM 35.9889 -80.1256 65° Northeast 376 433 29,000  Level Washington Center
Fri 04:12:39 PM 36.0303 -80.0175 65° Northeast 358 412 29,000  Level Washington Center
Fri 04:13:40 PM 36.0864 -79.9100 57° Northeast 358 412 29,000  Level Washington Center
Fri 04:14:41 PM 36.1444 -79.8078 55° Northeast 358 412 29,000  Level Washington Center
Fri 04:15:41 PM 36.2003 -79.7028 57° Northeast 363 418 29,000  Level Washington Center
Fri 04:16:40 PM 36.2533 -79.6103 55° Northeast 363 418 29,000  Level Washington Center
Fri 04:17:40 PM 36.3178 -79.4975 55° Northeast 368 423 29,000  Level Washington Center
Fri 04:18:41 PM 36.3772 -79.3947 54° Northeast 368 423 29,000  Level Washington Center
Fri 04:19:39 PM 36.4283 -79.2964 57° Northeast 368 423 29,000 -504 Level Washington Center
Fri 04:20:40 PM 36.4944 -79.1808 55° Northeast 368 423 28,000 -893 Descending Washington Center
Fri 04:21:40 PM 36.5472 -79.0900 54° Northeast 368 423 27,200 -893 Descending Washington Center
Fri 04:22:41 PM 36.6067 -78.9842 55° Northeast 368 423 26,200 -1,059 Descending Washington Center
Fri 04:23:39 PM 36.6683 -78.8650 57° Northeast 368 423 25,100 -605 Descending Washington Center
Fri 04:24:40 PM 36.7189 -78.7764 55° Northeast 363 418 25,000 -50 Descending Washington Center
Fri 04:25:40 PM 36.7736 -78.6750 56° Northeast 358 412 25,000  Level Washington Center
Fri 04:26:41 PM 36.8261 -78.5758 56° Northeast 346 398 25,000 -248 Level Washington Center
Fri 04:27:41 PM 36.8783 -78.4869 54° Northeast 341 392 24,500 -661 Descending Washington Center
Fri 04:28:39 PM 36.9331 -78.3853 56° Northeast 349 402 23,700 -864 Descending Washington Center
Fri 04:29:39 PM 36.9983 -78.2600 57° Northeast 354 407 22,800 -843 Descending Washington Center
Fri 04:30:40 PM 37.0625 -78.1894 41° Northeast 343 395 22,000 -397 Descending Washington Center
Fri 04:31:40 PM 37.1433 -78.1269 32° Northeast 318 366 22,000  Level Washington Center
Fri 04:32:41 PM 37.2194 -78.0669 32° Northeast 318 366 22,000  Level Washington Center
Fri 04:33:41 PM 37.2981 -78.0069 31° Northeast 318 366 22,000  Level Washington Center
Fri 04:34:39 PM 37.3764 -77.9467 31° Northeast 324 373 22,000  Level Washington Center
Fri 04:35:41 PM 37.4525 -77.8886 31° Northeast 324 373 22,000 -148 Level Washington Center
Fri 04:36:41 PM 37.5331 -77.8283 31° Northeast 324 373 21,700 -850 Descending Washington Center
Fri 04:37:41 PM 37.6131 -77.7783 26° Northeast 319 367 20,300 -1,424 Descending Washington Center
Fri 04:38:39 PM 37.6911 -77.7333 25° Northeast 307 353 18,900 -1,311 Descending Washington Center
Fri 04:39:40 PM 37.7692 -77.6881 25° Northeast 302 348 17,700 -1,426 Descending Washington Center
Fri 04:40:41 PM 37.8469 -77.6431 25° Northeast 302 348 16,000 -1,714 Descending Washington Center
Fri 04:41:39 PM 37.9269 -77.5978 24° Northeast 302 348 14,300 -1,700 Descending Washington Center
Fri 04:42:41 PM 38.0031 -77.5497 26° Northeast 302 348 12,600 -1,574 Descending Washington Center
Fri 04:43:41 PM 38.0767 -77.5094 23° Northeast 296 341 11,100 -1,322 Descending Washington Center
Fri 04:44:39 PM 38.1481 -77.4664 25° Northeast 296 341 10,000 -814 Descending Washington Center
Fri 04:45:39 PM 38.2197 -77.4258 24° Northeast 284 327 9,500 -992 Descending Washington Center
Fri 04:46:40 PM 38.2922 -77.4594 340° North 253 291 8,000 -1,240 Descending Washington Center
Fri 04:47:40 PM 38.3650 -77.4719 352° North 258 297 7,000 -500 Descending Washington Center
Fri 04:48:40 PM 38.4381 -77.4711 North 258 297 7,000 -843 Level Washington Center
Fri 04:49:41 PM 38.5089 -77.4703 North 253 291 5,300 -1,311 Descending Washington Center
Fri 04:50:39 PM 38.5797 -77.4667 North 253 291 4,400 -1,000 Descending Washington Center
Fri 04:51:41 PM 38.6528 -77.4686 359° North 253 291 3,300 -689 Descending Washington Center
Fri 04:52:41 PM 38.7258 -77.4650 North 253 291 3,000 -191 Descending Washington Center
Fri 04:53:15 PM 38.7667 -77.4667 358° North 257 296 3,000 -383 Level Potomac TRACON
Fri 04:54:15 PM 38.8333 -77.4667 360° North 203 234 2,400 -750 Descending Potomac TRACON
Fri 04:55:15 PM 38.8833 -77.4667 360° North 150 173 1,500 -793 Descending Potomac TRACON
Fri 04:56:16 PM 38.9167 -77.4667 360° North 143 165 800 -689 Descending Potomac TRACON

Login

Don't have an account? Register now (free) for customized features, flight alerts, and more!